DW6399 Weather Reports


Display with metric or nautical units.
time (UTC)temp
F
wind
direction
speed
MPH
gust
MPH
rain 1hr
in
rain 24hr
in
rain mn
in
humidity
%
barometer
mb
20260506210903 28 331 0.0 2.0 0.00 0.00 0.00 91 1010.9
20260506210004 28 0 0.0 0.0 0.00 0.00 0.00 90 1010.8
20260506205403 29 0 0.0 0.0 0.00 0.00 0.00 91 1010.8
20260506204503 28 0 0.0 0.0 0.00 0.00 0.00 91 1010.8
20260506203603 28 331 0.0 2.0 0.00 0.00 0.00 90 1010.8
20260506202703 28 0 0.0 0.0 0.00 0.00 0.00 90 1010.9
20260506201803 29 331 0.0 1.0 0.00 0.00 0.00 91 1010.8
20260506200924 28 331 0.0 2.0 0.00 0.00 0.00 89 1010.7
20260506200003 28 331 0.0 1.0 0.00 0.00 0.00 89 1010.7
20260506195403 28 331 0.0 1.0 0.00 0.00 0.00 88 1010.7
20260506194503 29 331 0.0 1.0 0.00 0.00 0.00 88 1010.7
20260506193603 29 331 0.0 1.0 0.00 0.00 0.00 88 1010.7
20260506192724 30 331 0.0 1.0 0.00 0.00 0.00 88 1010.7
20260506191803 30 0 0.0 0.0 0.00 0.00 0.00 87 1010.7
20260506190903 31 0 0.0 0.0 0.00 0.00 0.00 85 1010.6
20260506190006 32 0 0.0 0.0 0.00 0.00 0.00 84 1010.5
20260506185426 32 0 0.0 0.0 0.00 0.00 0.00 84 1010.4
20260506184505 34 0 0.0 0.0 0.00 0.00 0.00 82 1010.4
20260506183605 35 0 0.0 0.0 0.00 0.00 0.00 81 1010.3
20260506182705 36 0 0.0 0.0 0.00 0.00 0.00 78 1010.2
20260506181804 38 331 2.0 5.0 0.00 0.00 0.00 78 1010.0
20260506180905 38 331 2.0 3.0 0.00 0.00 0.00 78 1009.9
20260506180006 39 334 4.0 6.0 0.00 0.00 0.00 78 1009.9
20260506175405 39 331 4.0 6.0 0.00 0.00 0.00 77 1009.8
20260506174526 40 330 3.0 5.0 0.00 0.00 0.00 76 1009.8
20260506173605 40 306 4.0 8.0 0.00 0.00 0.00 76 1009.8
20260506172705 40 317 4.0 8.0 0.00 0.00 0.00 77 1009.6
20260506171805 40 318 6.0 12.0 0.00 0.00 0.00 76 1009.6
20260506170904 40 306 6.0 11.0 0.00 0.00 0.00 77 1009.5
20260506170026 40 306 7.0 11.0 0.00 0.00 0.00 77 1009.4
20260506165405 39 317 6.0 10.0 0.00 0.00 0.00 77 1009.4
20260506164505 40 299 4.0 9.0 0.00 0.00 0.00 78 1009.3
20260506163604 39 299 6.0 11.0 0.00 0.00 0.00 78 1009.2
20260506162705 39 299 7.0 11.0 0.00 0.00 0.00 77 1009.3
20260506161805 40 307 7.0 12.0 0.00 0.00 0.00 77 1009.2
20260506160926 40 295 8.0 14.0 0.00 0.00 0.00 76 1009.1
20260506160005 40 300 9.0 14.0 0.00 0.00 0.00 77 1009.0
20260506155405 40 303 8.0 13.0 0.00 0.00 0.00 77 1008.9
20260506154504 40 302 7.0 12.0 0.00 0.00 0.00 77 1008.9
20260506153605 40 295 8.0 12.0 0.00 0.00 0.00 77 1008.8
20260506152705 40 286 8.0 15.0 0.00 0.00 0.00 77 1008.7
20260506151805 40 295 8.0 14.0 0.00 0.00 0.00 77 1008.6
20260506150905 40 297 8.0 13.0 0.00 0.00 0.00 77 1008.7
20260506150026 40 302 9.0 15.0 0.00 0.00 0.00 77 1008.6
20260506145404 40 301 10.0 16.0 0.00 0.00 0.00 77 1008.6
20260506144504 40 298 10.0 17.0 0.00 0.00 0.00 76 1008.5
20260506143605 41 277 9.0 17.0 0.00 0.00 0.00 76 1008.4
20260506142704 41 280 10.0 18.0 0.00 0.00 0.00 75 1008.4
20260506141804 40 273 10.0 22.0 0.00 0.00 0.00 75 1008.3
20260506140904 40 284 12.0 23.0 0.00 0.00 0.00 75 1008.2
20260506140026 40 282 12.0 23.0 0.00 0.00 0.00 75 1008.2
20260506135405 40 286 11.0 23.0 0.00 0.00 0.00 74 1008.2
20260506134504 40 288 9.0 21.0 0.00 0.00 0.00 74 1007.9
20260506133626 40 290 12.0 20.0 0.00 0.00 0.00 76 1007.9
20260506132704 40 291 11.0 20.0 0.00 0.00 0.00 75 1007.6
20260506131805 41 292 10.0 20.0 0.00 0.00 0.00 75 1007.6
20260506130904 41 281 9.0 16.0 0.00 0.00 0.00 77 1007.5
20260506130005 41 296 9.0 17.0 0.00 0.00 0.00 77 1007.3
20260506125405 41 296 9.0 16.0 0.00 0.00 0.00 78 1007.3
20260506124504 41 305 10.0 16.0 0.00 0.00 0.00 77 1007.2
20260506123626 41 301 8.0 17.0 0.00 0.00 0.00 77 1007.0
20260506122726 40 300 9.0 14.0 0.00 0.00 0.00 77 1007.0
20260506121804 40 307 7.0 14.0 0.00 0.00 0.00 78 1007.0
20260506120905 39 299 8.0 15.0 0.00 0.00 0.00 77 1006.8
20260506120005 39 300 8.0 13.0 0.00 0.00 0.00 76 1006.7
20260506115404 39 305 8.0 12.0 0.00 0.00 0.00 75 1006.8
20260506114504 39 286 9.0 16.0 0.00 0.00 0.00 72 1006.6
20260506113604 40 275 7.0 15.0 0.00 0.00 0.00 71 1006.5
20260506112705 39 279 8.0 16.0 0.00 0.00 0.00 71 1006.3
20260506111804 39 282 9.0 19.0 0.00 0.00 0.00 72 1006.2
20260506110904 39 276 8.0 15.0 0.00 0.00 0.00 72 1006.1
20260506110005 39 272 8.0 20.0 0.00 0.00 0.00 71 1006.0
20260506105405 39 276 8.0 20.0 0.00 0.00 0.00 71 1005.9
20260506104505 39 273 8.0 17.0 0.00 0.00 0.00 72 1005.8
20260506103604 39 280 10.0 20.0 0.00 0.00 0.00 72 1005.7
20260506102704 40 283 10.0 20.0 0.00 0.00 0.00 71 1005.5
20260506101805 40 285 9.0 18.0 0.00 0.00 0.00 71 1005.4
20260506100905 40 278 10.0 24.0 0.00 0.00 0.00 69 1005.2
20260506100025 41 280 9.0 18.0 0.00 0.00 0.00 69 1005.1
20260506095404 41 274 8.0 18.0 0.00 0.00 0.00 68 1004.9
20260506094504 41 283 10.0 20.0 0.00 0.00 0.00 67 1004.8
20260506093604 42 278 9.0 17.0 0.00 0.00 0.00 64 1004.6
20260506092704 42 273 7.0 16.0 0.00 0.00 0.00 62 1004.4
20260506091805 42 269 7.0 20.0 0.00 0.00 0.00 61 1004.3
20260506090904 43 275 5.0 15.0 0.00 0.00 0.00 58 1004.1
20260506090005 43 256 7.0 19.0 0.00 0.00 0.00 57 1003.9
20260506085425 44 262 8.0 30.0 0.00 0.00 0.00 56 1003.8
20260506084504 44 268 8.0 30.0 0.00 0.00 0.00 56 1003.7
20260506083605 44 278 8.0 16.0 0.00 0.00 0.00 57 1003.6
20260506082704 45 280 7.0 17.0 0.00 0.00 0.00 57 1003.4
20260506081804 44 261 7.0 20.0 0.00 0.00 0.00 59 1003.3
20260506080904 44 269 9.0 23.0 0.00 0.00 0.00 58 1003.2
20260506072725 43 273 9.0 18.0 0.00 0.00 0.00 60 1002.6
20260506071804 42 271 9.0 21.0 0.00 0.00 0.00 61 1002.6
20260506070904 42 276 9.0 19.0 0.00 0.00 0.00 62 1002.5
20260506061825 40 269 7.0 14.0 0.00 0.00 0.00 69 1002.1
20260506060925 39 280 9.0 18.0 0.00 0.00 0.00 68 1001.9
20260506050904 37 271 4.0 12.0 0.00 0.00 0.00 73 1001.3
20260506044504 36 265 4.0 13.0 0.00 0.00 0.00 75 1001.0
20260506043604 36 268 4.0 16.0 0.00 0.00 0.00 75 1001.0
20260506042704 36 260 4.0 12.0 0.00 0.00 0.00 76 1001.0
20260506041804 35 266 4.0 10.0 0.00 0.00 0.00 77 1000.5
20260506040904 35 270 3.0 9.0 0.00 0.00 0.00 78 1000.5
20260506040005 34 269 3.0 10.0 0.00 0.00 0.00 79 1000.1
20260506035404 33 272 3.0 9.0 0.00 0.00 0.00 81 999.1
20260506034504 32 267 2.0 7.0 0.00 0.00 0.00 82 1001.5
20260506033604 31 262 2.0 8.0 0.00 0.00 0.00 82 1000.8
20260506032704 31 259 3.0 8.0 0.00 0.00 0.00 82 1000.5
20260506031804 31 264 2.0 7.0 0.00 0.00 0.00 82 1000.5
20260506030904 30 268 2.0 8.0 0.00 0.00 0.00 83 1000.4
20260506030005 30 259 2.0 5.0 0.00 0.00 0.00 83 1000.4
20260506025425 30 265 2.0 6.0 0.00 0.00 0.00 83 1000.3
20260506024504 29 247 1.0 6.0 0.00 0.00 0.00 83 1000.2
20260506023604 29 187 1.0 4.0 0.00 0.00 0.00 83 1000.2
20260506022704 29 188 1.0 6.0 0.00 0.00 0.00 83 1000.1
20260506021825 29 332 1.0 3.0 0.00 0.00 0.00 83 1000.0
20260506020904 29 234 1.0 3.0 0.00 0.00 0.00 83 1000.1
20260506020005 29 193 1.0 4.0 0.00 0.00 0.00 83 1000.1
20260506015404 29 159 0.0 2.0 0.00 0.00 0.00 82 1000.0
20260506014504 29 185 1.0 2.0 0.00 0.00 0.00 82 1000.0
20260506013625 29 174 1.0 2.0 0.00 0.00 0.00 82 999.9
20260506012725 29 177 1.0 2.0 0.00 0.00 0.00 82 999.8
20260506010904 29 224 1.0 3.0 0.00 0.00 0.00 81 999.7
20260506003604 30 260 1.0 4.0 0.00 0.00 0.00 80 999.5
20260506002704 30 269 1.0 5.0 0.00 0.00 0.00 79 999.5
20260506001804 30 266 1.0 4.0 0.00 0.00 0.00 78 999.4
20260506000904 31 259 1.0 5.0 0.00 0.00 0.00 78 999.4
20260506000032 31 261 1.0 5.0 0.00 0.01 0.00 78 999.4
20260505235404 31 288 2.0 5.0 0.00 0.01 0.00 78 999.4
20260505234504 31 277 1.0 4.0 0.00 0.01 0.00 78 999.3
20260505233604 31 271 2.0 8.0 0.00 0.01 0.00 78 999.3
20260505232704 31 260 1.0 6.0 0.00 0.01 0.00 79 999.3
20260505231804 31 200 1.0 3.0 0.00 0.01 0.00 78 999.3
20260505230904 31 212 1.0 3.0 0.00 0.01 0.00 77 999.3
20260505230025 31 247 1.0 4.0 0.00 0.01 0.00 77 999.2
20260505225404 31 278 1.0 4.0 0.00 0.02 0.00 77 999.2
20260505224504 31 248 1.0 4.0 0.00 0.02 0.00 77 999.2
20260505223604 32 263 2.0 7.0 0.00 0.02 0.00 76 999.3
20260505222704 32 237 1.0 5.0 0.00 0.02 0.00 75 999.3
20260505221804 32 261 1.0 6.0 0.00 0.02 0.00 75 999.2
20260505220904 32 269 1.0 6.0 0.00 0.03 0.00 75 999.3
20260505220025 32 263 2.0 7.0 0.00 0.03 0.00 74 999.3
20260505215404 32 241 1.0 7.0 0.00 0.03 0.00 74 999.2
20260505214504 32 265 2.0 4.0 0.00 0.03 0.00 73 999.2
20260505213604 32 295 1.0 4.0 0.00 0.03 0.00 73 999.1
20260505212704 32 259 1.0 4.0 0.00 0.03 0.00 71 999.0
20260505211804 33 280 2.0 6.0 0.00 0.03 0.00 70 999.0